[[{"header":{"parameterUnit":"m.s-1","parameterCategory":1,"la1":30.2991,"la2":30.254,"lo1":-89.0895,"lo2":-89.0444,"dy":0.0017,"dx":0.0017,"nx":28,"ny":28,"refTime":"2024-07-24T09:00:00:Z","depth":0,"parameterNumber":2,"parameterNumberName":"U-component_of_WINDS"},"data":[0,0,0,0,0,0,0,0,0,0,0,0,0,0,0,0,0,0,0,0,0,0,0,0,0,0,0,0,0,0,0,0,0,0,0,0,0,0,0,0,0,0,0,0,0,0,0,0,0,0,0,0,0,0,0,0,0,0,0.0406,0.0406,0,0.0416,0.0416,0.0416,0.0437,0.0437,0.0437,0.0438,0.0446,0.0446,0.0446,0,0,0,0,0,0,0,0,0,0,0,0,0,0.0405,0.0405,0.0406,0.0406,0.0406,0.0416,0.0416,0.0416,0.0437,0.0437,0.0438,0.0438,0.0446,0.0446,0.0446,0,0,0,0,0,0,0,0,0,0,0,0,0,0.0409,0.0404,0.0406,0.0418,0.0419,0.0416,0.0416,0.0416,0.0436,0.0437,0.0438,0.0438,0.0447,0.0446,0.0446,0.0432,0,0,0.0445,0.0445,0,0,0,0,0,0,0,0,0.0409,0.0409,0.0416,0.0417,0.0418,0.0426,0.0419,0.0421,0.0436,0.043,0.0438,0.0439,0.0439,0.0439,0.044,0.0432,0.0433,0.0445,0.0445,0.0445,0.0445,0,0,0,0,0,0,0,0.0408,0.0409,0.041,0.0416,0.0417,0.0422,0.0424,0.0419,0.0431,0.043,0.0432,0.0433,0.044,0.044,0.044,0.0433,0.0445,0.0445,0.0445,0.0445,0.0415,0.0414,0,0,0,0,0,0,0.0406,0.0408,0.041,0.041,0.0415,0.0422,0.0423,0.0423,0.0431,0.0433,0.0432,0.0434,0.044,0.044,0.044,0.0425,0.0445,0.0445,0.0445,0.0416,0.0415,0.0414,0,0,0,0,0,0,0.0406,0.0406,0.0409,0.041,0.041,0.0421,0.042,0.0423,0.0423,0.0432,0.0434,0.043,0.0441,0.0441,0.0434,0.0425,0.0445,0.0444,0.0416,0.0415,0.0414,0.0392,0,0,0,0,0,0,0.0406,0.0406,0.0401,0.0409,0.041,0.0403,0.042,0.0422,0.0423,0.0425,0.0431,0.0433,0.0441,0.0434,0.0434,0.0425,0.0444,0.0417,0.0416,0.0415,0.0394,0.0391,0.0388,0,0,0,0,0,0.0406,0.0394,0.0401,0.0401,0.0404,0.0402,0.0403,0.0413,0.0422,0.0416,0.0423,0.0433,0.0426,0.0434,0.0433,0.0424,0.0418,0.0416,0.0415,0.0395,0.0391,0.0388,0,0,0,0,0,0,0.0383,0.0395,0.0403,0.0393,0.0397,0.0406,0.0399,0.0409,0.0409,0.0411,0.0423,0.0425,0.0416,0.042,0.0427,0.0411,0.0424,0.0422,0.0409,0.0405,0.0403,0.0401,0.0444,0,0,0,0,0,0.0378,0.0375,0.0386,0.0376,0.0378,0.0388,0.0388,0.0396,0.0399,0.0401,0.0407,0.041,0.0409,0.0407,0.0407,0.0395,0.0397,0.0389,0.0386,0.0383,0.0381,0.0376,0.0372,0.0409,0.0409,0.0409,0,0,0.0365,0.0371,0.0369,0.0372,0.0376,0.0373,0.0389,0.0386,0.0384,0.04,0.0394,0.0399,0.0403,0.0394,0.039,0.0396,0.0372,0.0382,0.038,0.0379,0.0374,0.037,0.0367,0.0408,0.0408,0.0409,0,0,0.034,0.0345,0.0338,0.0341,0.0347,0.0354,0.0352,0.0361,0.0364,0.0359,0.0371,0.0369,0.0367,0.0369,0.037,0.0348,0.0357,0.0348,0.0332,0.0326,0.0323,0.0321,0.0312,0.0309,0.0346,0.0346,0.0346,0,0.0324,0.032,0.0333,0.0328,0.0329,0.0345,0.0338,0.0341,0.0345,0.0346,0.0353,0.0351,0.0355,0.0347,0.0341,0.0342,0.034,0.0346,0.0323,0.032,0.0318,0.031,0.0307,0.0345,0.0345,0.0345,0.0345,0,0.0299,0.0297,0.029,0.0295,0.0296,0.029,0.0301,0.03,0.0308,0.0315,0.0309,0.0315,0.0316,0.0315,0.0322,0.0307,0.0311,0.0321,0.0333,0.0313,0.0306,0.0303,0.0343,0.0343,0.0344,0.0344,0,0,0.0259,0.0272,0.027,0.0272,0.028,0.0278,0.0273,0.0275,0.0274,0.0277,0.0273,0.0271,0.028,0.0281,0.0289,0.0285,0.0266,0.0295,0.0295,0.0289,0.025,0.0243,0.0239,0.0273,0.0272,0.0272,0.025,0,0.0236,0.0228,0.024,0.0229,0.0227,0.0243,0.0239,0.0243,0.0249,0.0248,0.0255,0.0254,0.0266,0.0267,0.0263,0.0269,0.0259,0.0271,0.0269,0.0268,0.0266,0.0235,0.0227,0.0205,0.0247,0.0247,0.0246,0,0.0207,0.021,0.0199,0.0208,0.0208,0.0204,0.0206,0.0205,0.0211,0.0216,0.0218,0.0228,0.0224,0.0237,0.0231,0.0239,0.0239,0.0243,0.0242,0.0241,0.0255,0.0233,0.0199,0.0195,0.0242,0.0242,0.0243,0,0.0178,0.0179,0.0173,0.0175,0.0185,0.0182,0.0187,0.0193,0.0193,0.0196,0.0196,0.0198,0.0198,0.02,0.021,0.0219,0.0203,0.0217,0.0206,0.0206,0.0201,0.0201,0.0166,0.0203,0.0203,0.0203,0.0203,0,0.015,0.0143,0.016,0.0156,0.0149,0.0163,0.0155,0.0161,0.0166,0.0164,0.0178,0.0175,0.0189,0.0188,0.0196,0.019,0.0191,0.0194,0.0196,0.0192,0.0192,0.0192,0.0193,0.0202,0.0202,0.0202,0.0202,0,0.0116,0.0127,0.0122,0.0133,0.0135,0.0129,0.0139,0.0136,0.0143,0.014,0.014,0.0152,0.0152,0.0163,0.0164,0.017,0.0159,0.0165,0.0158,0.0159,0.0148,0.0148,0.011,0.0106,0.0146,0.0146,0.0145,0,0.0097,0.0092,0.0102,0.0102,0.0106,0.0105,0.0106,0.0119,0.012,0.0126,0.0122,0.0123,0.0124,0.0123,0.0131,0.0133,0.0137,0.0124,0.0138,0.0134,0.0137,0.0136,0.0136,0.0121,0.012,0.012,0.012,0,0.0061,0.0067,0.0068,0.0071,0.0072,0.0075,0.0078,0.0077,0.0092,0.0092,0.0092,0.0093,0.0095,0.0096,0.0099,0.0103,0.0114,0.0116,0.0113,0.0108,0.0104,0.0106,0.0149,0.0116,0.0116,0.0117,0.0117,0.0117,0.0033,0.003,0.0037,0.0037,0.0042,0.0045,0.0043,0.0051,0.0052,0.0055,0.0063,0.0061,0.0068,0.0073,0.0077,0.0076,0.0083,0.0079,0.0078,0.0077,0.0074,0.0106,0.0077,0.0077,0.0077,0.0077,0.0077,0,-0.0002,0.0004,0.0004,0.0009,0.001,0.0021,0.0026,0.0026,0.0024,0.003,0.0031,0.0031,0.0032,0.0042,0.0044,0.0041,0.0046,0.0041,0.0041,0.0042,0.0069,0.007,0.0037,0.0037,0.0037,0.0037,0.0037,0.0037,-0.0021,-0.0026,-0.0019,-0.0022,-0.0016,-0.0017,-0.0015,-0.0012,-0.0007,-0.0008,-0.0006,0.0,0.0007,0.001,0.0011,0.0014,0.0014,0.0007,0.0011,0.0036,0.004,0.0043,0.0045,0.0007,0.0007,-0.0016,-0.0016,-0.0016]},{"header":{"parameterUnit":"m.s-1","parameterCategory":1,"la1":30.2991,"la2":30.254,"lo1":-89.0895,"lo2":-89.0444,"dy":0.0017,"dx":0.0017,"nx":28,"ny":28,"refTime":"2024-07-24T09:00:00:Z","depth":0,"parameterNumber":3,"parameterNumberName":"V-component_of_WINDS"},"data":[0,0,0,0,0,0,0,0,0,0,0,0,0,0,0,0,0,0,0,0,0,0,0,0,0,0,0,0,0,0,0,0,0,0,0,0,0,0,0,0,0,0,0,0,0,0,0,0,0,0,0,0,0,0,0,0,0,0,-1.0602,-1.0602,0,-1.0592,-1.0592,-1.0592,-1.0568,-1.0567,-1.0567,-1.0566,-1.0555,-1.0555,-1.0556,0,0,0,0,0,0,0,0,0,0,0,0,0,-1.0602,-1.0602,-1.0602,-1.0602,-1.0602,-1.0592,-1.0592,-1.0592,-1.0568,-1.0567,-1.0567,-1.0566,-1.0555,-1.0555,-1.0556,0,0,0,0,0,0,0,0,0,0,0,0,0,-1.0598,-1.0602,-1.0602,-1.0589,-1.0588,-1.0592,-1.0592,-1.0591,-1.0568,-1.0567,-1.0566,-1.0566,-1.0555,-1.0555,-1.0556,-1.0572,0,0,-1.0556,-1.0556,0,0,0,0,0,0,0,0,-1.0598,-1.0598,-1.0591,-1.059,-1.0589,-1.058,-1.0588,-1.0585,-1.0568,-1.0575,-1.0566,-1.0565,-1.0564,-1.0564,-1.0563,-1.0571,-1.0571,-1.0556,-1.0556,-1.0557,-1.0557,0,0,0,0,0,0,0,-1.0599,-1.0598,-1.0598,-1.0591,-1.0589,-1.0584,-1.0582,-1.0587,-1.0574,-1.0575,-1.0573,-1.0572,-1.0563,-1.0563,-1.0563,-1.0571,-1.0556,-1.0557,-1.0557,-1.0557,-1.0592,-1.0593,0,0,0,0,0,0,-1.0601,-1.0599,-1.0598,-1.0598,-1.0592,-1.0584,-1.0583,-1.0584,-1.0574,-1.0572,-1.0573,-1.0571,-1.0563,-1.0563,-1.0562,-1.0581,-1.0557,-1.0557,-1.0557,-1.0591,-1.0592,-1.0593,0,0,0,0,0,0,-1.0601,-1.0601,-1.0599,-1.0598,-1.0597,-1.0585,-1.0586,-1.0584,-1.0584,-1.0572,-1.057,-1.0575,-1.0562,-1.0562,-1.057,-1.058,-1.0557,-1.0557,-1.059,-1.0591,-1.0592,-1.0618,0,0,0,0,0,0,-1.0601,-1.0601,-1.0607,-1.0598,-1.0597,-1.0607,-1.0587,-1.0584,-1.0584,-1.0582,-1.0574,-1.0572,-1.0562,-1.0569,-1.057,-1.058,-1.0557,-1.0589,-1.0591,-1.0592,-1.0616,-1.062,-1.0623,0,0,0,0,0,-1.0601,-1.0615,-1.0608,-1.0608,-1.0604,-1.0607,-1.0607,-1.0595,-1.0585,-1.0591,-1.0584,-1.0572,-1.0579,-1.057,-1.0571,-1.0581,-1.0588,-1.059,-1.0592,-1.0615,-1.0619,-1.0623,0,0,0,0,0,0,-1.0625,-1.0613,-1.0605,-1.0616,-1.0613,-1.0603,-1.061,-1.06,-1.06,-1.0597,-1.0583,-1.0581,-1.0591,-1.0587,-1.0578,-1.0597,-1.0582,-1.0584,-1.0599,-1.0603,-1.0607,-1.0607,-1.0557,0,0,0,0,0,-1.0631,-1.0635,-1.0624,-1.0635,-1.0634,-1.0622,-1.0623,-1.0615,-1.061,-1.0609,-1.0602,-1.0599,-1.06,-1.0601,-1.0602,-1.0616,-1.0614,-1.0623,-1.0626,-1.0629,-1.0631,-1.0638,-1.0643,-1.0599,-1.0599,-1.0599,0,0,-1.0645,-1.0639,-1.0642,-1.0639,-1.0636,-1.064,-1.0621,-1.0626,-1.0629,-1.0609,-1.0617,-1.0612,-1.0607,-1.0618,-1.0622,-1.0614,-1.0643,-1.0632,-1.0634,-1.0634,-1.0641,-1.0645,-1.0649,-1.06,-1.06,-1.0599,0,0,-1.0671,-1.0667,-1.0676,-1.0673,-1.0668,-1.066,-1.0662,-1.0654,-1.065,-1.0657,-1.0643,-1.0646,-1.0649,-1.0646,-1.0645,-1.0672,-1.0661,-1.0672,-1.069,-1.0698,-1.0701,-1.0704,-1.0714,-1.0717,-1.0674,-1.0674,-1.0674,0,-1.0689,-1.0694,-1.0681,-1.0687,-1.0687,-1.067,-1.0679,-1.0676,-1.0672,-1.0672,-1.0664,-1.0667,-1.0663,-1.0673,-1.0679,-1.0679,-1.0681,-1.0673,-1.0702,-1.0705,-1.0707,-1.0716,-1.072,-1.0676,-1.0675,-1.0675,-1.0675,0,-1.0716,-1.0719,-1.0727,-1.0723,-1.0724,-1.0731,-1.072,-1.0722,-1.0714,-1.0707,-1.0715,-1.0709,-1.0708,-1.071,-1.0702,-1.0719,-1.0715,-1.0704,-1.0689,-1.0713,-1.0721,-1.0725,-1.0678,-1.0677,-1.0677,-1.0676,0,0,-1.0756,-1.0746,-1.0749,-1.0748,-1.0741,-1.0744,-1.0751,-1.075,-1.0752,-1.075,-1.0755,-1.0759,-1.0749,-1.0748,-1.0739,-1.0746,-1.0767,-1.0734,-1.0734,-1.0741,-1.0787,-1.0795,-1.0799,-1.076,-1.0761,-1.0761,-1.0787,0,-1.0781,-1.0792,-1.0782,-1.0795,-1.0798,-1.0783,-1.0789,-1.0785,-1.078,-1.0782,-1.0776,-1.0778,-1.0765,-1.0764,-1.077,-1.0764,-1.0776,-1.0761,-1.0765,-1.0766,-1.0767,-1.0803,-1.0812,-1.0836,-1.079,-1.0791,-1.0791,0,-1.0812,-1.0811,-1.0825,-1.0818,-1.0819,-1.0825,-1.0824,-1.0826,-1.0822,-1.0818,-1.0817,-1.0807,-1.0813,-1.0799,-1.0807,-1.0797,-1.0798,-1.0795,-1.0796,-1.0796,-1.078,-1.0804,-1.0844,-1.0848,-1.0796,-1.0796,-1.0796,0,-1.0841,-1.0843,-1.0852,-1.0851,-1.0843,-1.0847,-1.0844,-1.084,-1.0841,-1.084,-1.084,-1.084,-1.084,-1.0841,-1.0831,-1.0821,-1.0841,-1.0825,-1.0838,-1.0838,-1.0842,-1.0842,-1.0883,-1.0843,-1.0843,-1.0843,-1.0843,0,-1.087,-1.0879,-1.0865,-1.087,-1.088,-1.0867,-1.0877,-1.0873,-1.0869,-1.0873,-1.086,-1.0864,-1.0851,-1.0854,-1.0846,-1.0855,-1.0855,-1.0851,-1.0849,-1.0853,-1.0853,-1.0853,-1.0851,-1.0844,-1.0844,-1.0843,-1.0843,0,-1.0903,-1.0894,-1.0903,-1.0895,-1.0893,-1.0901,-1.0894,-1.0899,-1.0892,-1.0898,-1.0898,-1.0888,-1.0891,-1.0882,-1.0883,-1.0878,-1.089,-1.0885,-1.0892,-1.089,-1.0903,-1.0902,-1.0945,-1.095,-1.0907,-1.0907,-1.0908,0,-1.0923,-1.0929,-1.0922,-1.0924,-1.0922,-1.0925,-1.0926,-1.0915,-1.0916,-1.0913,-1.0918,-1.092,-1.092,-1.0926,-1.0919,-1.092,-1.0915,-1.093,-1.0915,-1.0918,-1.0915,-1.0915,-1.0916,-1.0933,-1.0933,-1.0934,-1.0934,0,-1.0958,-1.0953,-1.0955,-1.0955,-1.0957,-1.0956,-1.0955,-1.0957,-1.0945,-1.0947,-1.095,-1.0951,-1.0952,-1.0955,-1.0954,-1.0951,-1.0941,-1.0939,-1.0942,-1.0945,-1.0949,-1.0947,-1.09,-1.0938,-1.0938,-1.0937,-1.0937,-1.0937,-1.0985,-1.0991,-1.0987,-1.0989,-1.0987,-1.0986,-1.099,-1.0985,-1.0987,-1.0987,-1.098,-1.0985,-1.0981,-1.098,-1.0978,-1.0981,-1.0974,-1.0978,-1.0979,-1.0981,-1.0983,-1.0948,-1.0981,-1.0981,-1.0981,-1.0981,-1.0981,0,-1.102,-1.1017,-1.1019,-1.1018,-1.102,-1.101,-1.1009,-1.1011,-1.1015,-1.1013,-1.1014,-1.1018,-1.102,-1.1013,-1.1014,-1.1018,-1.1014,-1.1019,-1.1019,-1.1018,-1.0989,-1.0987,-1.1023,-1.1023,-1.1023,-1.1023,-1.1023,-1.1023,-1.1038,-1.1047,-1.1042,-1.105,-1.1046,-1.1051,-1.1051,-1.105,-1.1048,-1.1053,-1.1055,-1.105,-1.1046,-1.1047,-1.1049,-1.1047,-1.1048,-1.1055,-1.1051,-1.1024,-1.102,-1.1016,-1.1014,-1.1055,-1.1055,-1.108,-1.1081,-1.1081]}]]